HST 1 20580U 90037B 22145.83533168 .00003402 00000-0 19047-3 0 9998 2 20580 28.4703 318.6673 0002674 145.0225 316.5399 15.10506502562793 ISS (ZARYA) 1 25544U 98067A 22146.22125881 .00010617 00000-0 19583-3 0 9998 2 25544 51.6432 85.3792 0005097 158.3306 343.0517 15.49688356341774 CXO 1 25867U 99040B 22146.88774635 .00000356 00000-0 00000+0 0 9996 2 25867 45.9556 236.7033 8798982 233.2229 359.6635 0.37806133 22879